DELTA 1 DEB, 42576

Orbit data source: Space-Track

DELTA 1 DEB, 42576 is space debris in SSO originally from a launch on Tue, 06 Nov 1973 UTC launched from the Air Force Western Test Range (AFWTR). Debris objects in space refer to the collection of defunct objects orbiting the Earth. Examples of debris include non-operational satellites, rocket bodies, and fragments generated from explosions, collisions, or faulty payload assembly.

Loading next visibility...
Identifier
42576, 1973-086HQ
Orbit
SSO
Last TLE update
2 weeks ago
Origin
Manufacturer
Unknown
Mission
Spacecraft
Bus & Motor
Unknown
Mass
Unknown
Launch date (UTC)
1973-11-06 (52 years ago)
Launch vehicle
Unknown
Launch site
Air Force Western Test Range (AFWTR)
Object type
Payload
Rocket body
Debris
Shape & HBR
Unknown
Radar Cross Section
Small (<0.1 m²)

Expand to show TLE details & history

TLE from 2 weeks ago
0 DELTA 1 DEB
1 42576U 73086HQ  25170.07543588  .00000052  00000-0  40113-3 0  9992
2 42576 102.2492  16.7128 0300597 309.8811 205.3490 12.76403103 34776
Epoch: 2025-06-19T01:48Z
TLE epoch observation values (Epoch: 2025-06-19T01:48:37.66Z)
Latitude
25.58616°
Longitude
-92.05432°
Altitude
1,570.141 km
Speed
6.988 km/s
True Right ascension
13h 30m 36s
True Declination
25° 27' 58"
Sunlit
Object was in daylight at epoch
Visualization orbit readout
Latitude
74.72552°
Longitude
42.86767°
Altitude
1,577.771 km
Speed
6.989 km/s
Apparent Right ascension
04h 48m 22s
Apparent Declination
40° 02' 28"
Sunlit
Object is in daylight
Visualization observer readout
Local Sidereal Time
18:29:38
Azimuth
19.248° NNE
Elevation
-6.776°
Doppler factor
1
Orbital elements
Apogee altitude
1,585.916 km
Perigee altitude
1,121.094 km
Semi-major axis
7,731.642 km
Eccentricity
0.03006
Inclination
102.2492°
RAAN
16.7128°
Arg. of periapsis
309.8811°
True anomaly
Unknown
Mean anomaly
205.349°
Eccentric anomaly
Unknown
Mean motion
3.19253 °/min
Orbital period
112.76 mins
BSTAR
0.00040113
Loading maneuver chart data...
Loading SW <> Apogee altitude chart data...
Loading historical data...
Loading historical data...
Loading historical data...
Loading historical data...
Loading historical data...
Loading historical data...
Loading historical data...

DELTA 1 DEB Visibility forecast

Observer location: undefined°, undefined°

Span
Click to sort rows by Start time (UTC) header in descending order
Start Az.
Max El. time (UTC)
Max El. Az.
Max El.
End time (UTC)
End Az.
13 mins2025-07-01 12:13:46.793Z110.391° ESE2025-07-01 12:19:46.793Z54.968° ENE28.387°2025-07-01 12:26:46.793Z358.95° N
14 mins2025-07-01 14:03:46.793Z180.126° SSW2025-07-01 14:09:46.793Z256.124° W41.366°2025-07-01 14:17:46.793Z334.959° NNW
14 mins2025-07-02 01:53:46.793Z36.201° NE2025-07-02 02:00:46.793Z99.452° ESE32.802°2025-07-02 02:07:46.793Z163.348° S
14 mins2025-07-02 03:44:46.793Z4.372° NNE2025-07-02 03:51:46.793Z290.773° WNW37.732°2025-07-02 03:58:46.793Z227.783° WSW
5 mins2025-07-02 05:37:46.793Z333.572° NNW2025-07-02 05:39:46.793Z319.816° NNW12.49°2025-07-02 05:42:46.793Z299.205° NW
|